Regional Weather Roundup
Issued by NWS

Home | Current Version | Previous Version | Text Only | Print | Product List | Glossary On
Versions: 1 2 3 4 5 6 7 8 9 10 11 12 13 14 15 16 17 18 19 20 21 22 23 24 25 26 27 28 29 30 31 32 33 34 35 36 37 38 39 40 41 42 43 44 45 46 47 48 49 50
000
ASUS44 KJAN 250603
RWRMS

MISSISSIPPI HOURLY WEATHER ROUNDUP
NATIONAL WEATHER SERVICE JACKSON MS
100 AM CDT SAT JUN 25 2016

NOTE: "FAIR: INDICATES FEW OR NO CLOUDS BELOW 12,000 FEET WITH NO
SIGNIFICANT WEATHER AND/OR OBSTRUCTIONS TO VISIBILITY.

MSZ001>002-007>008-010>013-018>021-025>028-034>036-250700-
NORTHWEST MISSISSIPPI

CITY           SKY/WX    TMP DP  RH WIND       PRES   REMARKS
CLEVELAND      FAIR      79  78  97 CALM      30.04S
GREENWOOD      MOCLDY    76  72  87 CALM      30.05R
6HR MIN TEMP:  75; 6HR MAX TEMP:  90;

GREENVILLE     CLEAR     78  73  84 S5        30.04S
6HR MIN TEMP:  77; 6HR MAX TEMP:  92;

OXFORD         FAIR      73  72  94 CALM      30.07R
WINONA         FAIR      72  72 100 CALM      30.05S
$$

MSZ003>006-009-014>017-022>024-029>033-037>039-250700-
NORTHEAST MISSISSIPPI

CITY           SKY/WX    TMP DP  RH WIND       PRES   REMARKS
ABERDEEN       FAIR      75  57  53 CALM      30.05S HAZE
COLUMBUS AFB   CLEAR     77  74  92 CALM      30.03S
6HR MIN TEMP:  77; 6HR MAX TEMP:  92;

GOLDN TRIANGLE CLEAR     82  72  69 CALM      30.03F
STARKVILLE     FAIR      73  72  94 CALM      30.04S
TUPELO         PTCLDY    80  73  79 NW3       30.04S
6HR MIN TEMP:  79; 6HR MAX TEMP:  93;

$$

MSZ040-058-250700-
CENTRAL MISSISSIPPI

CITY           SKY/WX    TMP DP  RH WIND       PRES   REMARKS
JACKSON INTL   CLOUDY    80  74  81 SE3       30.06S
6HR MIN TEMP:  79; 6HR MAX TEMP:  89;

JACKSON HAWKNS PTCLDY    80  72  76 W5        30.06S
6HR MIN TEMP:  79; 6HR MAX TEMP:  88;

MADISON        MOCLDY    77  72  83 CALM      30.06S
MERIDIAN KEY   PTCLDY    79  73  82 CALM      30.05S
6HR MIN TEMP:  79; 6HR MAX TEMP:  90;

MERIDIAN NAS   CLEAR     81  71  71 CALM      30.05S
6HR MIN TEMP:  79; 6HR MAX TEMP:  94;

VICKSBURG VKS  CLEAR     77  75  94 CALM      30.05F
$$

MSZ059>079-250700-
SOUTH MISSISSIPPI

CITY           SKY/WX    TMP DP  RH WIND       PRES   REMARKS
BROOKHAVEN     FAIR     N/A N/A N/A CALM      30.08S
COLUMBIA       FAIR      73  72  94 CALM      30.11R
HATTIESBURG    CLEAR     79  71  76 CALM      30.07S
6HR MIN TEMP:  79; 6HR MAX TEMP:  91;

MCCOMB         CLEAR     75  71  87 CALM      30.07S
6HR MIN TEMP:  75; 6HR MAX TEMP:  89;

NATCHEZ        NOT AVBL
PINE BELT      CLEAR     75  68  78 CALM      30.08S
6HR MIN TEMP:  73; 6HR MAX TEMP:  90;

$$

MSZ080>082-250700-
COASTAL MISSISSIPPI

CITY           SKY/WX    TMP DP  RH WIND       PRES   REMARKS
BILOXI         CLEAR     81  75  81 SW6       30.05F
6HR MIN TEMP:  81; 6HR MAX TEMP:  86;

PASCAGOULA     CLEAR     72  71  97 CALM      30.06F
6HR MIN TEMP:  72; 6HR MAX TEMP:  85;

GULFPORT       CLEAR     78  73  84 CALM      30.05F
6HR MIN TEMP:  78; 6HR MAX TEMP:  87;

$$

LAZ007>009-015>016-023>026-250700-
NORTHEAST LOUISIANA

CITY           SKY/WX    TMP DP  RH WIND       PRES   REMARKS
BASTROP        FAIR      76  75  97 CALM      30.05S
TALLULAH/VBURG PTCLDY    76  73  91 CALM      30.05S
6HR MIN TEMP:  76; 6HR MAX TEMP:  88;

VIDALIA        FAIR      75  74  96 CALM      30.08S
$$



USA.gov is the U.S. government's official web portal to all federal, state and local government web resources and services.